SUNNYSIDE Weather Reports


time (UTC)temp
F
wind
direction
speed
knots
gust
knots
rain 1hr
in
rain 24hr
in
rain mn
in
humidity
%
barometer
mb
20260507215030 53 49 4.3 10.4 0.00 0.00 0.00 24 978.4
20260507214531 54 355 6.1 11.3 0.00 0.00 0.00 25 978.4
20260507214029 54 286 4.3 9.6 0.00 0.00 0.00 23 978.5
20260507213531 54 246 3.5 7.0 0.00 0.00 0.00 24 978.6
20260507213028 54 17 2.6 7.0 0.00 0.00 0.00 25 978.6
20260507212526 53 219 0.9 7.0 0.00 0.00 0.00 25 978.7
20260507212026 53 326 2.6 7.8 0.00 0.00 0.00 26 978.8
20260507211525 53 331 2.6 10.4 0.00 0.00 0.00 26 978.9
20260507211023 52 230 1.7 13.0 0.00 0.00 0.00 24 978.9
20260507210525 53 284 7.0 13.0 0.00 0.00 0.00 26 979.0
20260507210022 52 325 5.2 11.3 0.00 0.00 0.00 27 979.1
20260507205522 52 322 3.5 13.0 0.00 0.00 0.00 25 979.0
20260507205022 52 360 4.3 13.0 0.00 0.00 0.00 24 979.1
20260507204523 52 301 4.3 13.0 0.00 0.00 0.00 24 979.1
20260507204021 53 309 7.0 13.0 0.00 0.00 0.00 24 979.1
20260507203522 53 344 7.0 13.0 0.00 0.00 0.00 23 979.2
20260507203019 52 248 3.5 11.3 0.00 0.00 0.00 23 979.3
20260507202519 52 332 4.3 11.3 0.00 0.00 0.00 25 979.4
20260507202018 52 21 0.9 11.3 0.00 0.00 0.00 27 979.3
20260507201520 51 314 4.3 8.7 0.00 0.00 0.00 27 979.4
20260507201018 51 254 2.6 8.7 0.00 0.00 0.00 25 979.5
20260507200518 52 208 0.9 7.0 0.00 0.00 0.00 25 979.4
20260507200017 52 340 0.0 8.7 0.00 0.00 0.00 25 979.6
20260507195516 52 360 3.5 10.4 0.00 0.00 0.00 27 979.7
20260507195017 51 268 7.0 10.4 0.00 0.00 0.00 27 979.5
20260507194514 51 355 3.5 10.4 0.00 0.00 0.00 27 979.6
20260507194013 51 273 7.0 10.4 0.00 0.00 0.00 25 979.7
20260507193513 51 5 2.6 7.8 0.00 0.00 0.00 27 979.7
20260507193013 51 51 1.7 11.3 0.00 0.00 0.00 25 979.7
20260507192512 51 322 5.2 11.3 0.00 0.00 0.00 27 979.8
20260507192016 50 55 2.6 9.6 0.00 0.00 0.00 26 979.7
20260507191511 50 255 4.3 10.4 0.00 0.00 0.00 26 979.8
20260507191011 50 335 7.0 10.4 0.00 0.00 0.00 27 979.9
20260507190511 50 221 4.3 12.2 0.00 0.00 0.00 26 979.9
20260507190013 50 298 6.1 12.2 0.00 0.00 0.00 26 979.9
20260507185510 50 283 7.0 10.4 0.00 0.00 0.00 27 979.9
20260507185009 50 279 5.2 9.6 0.00 0.00 0.00 28 980.0
20260507184513 50 312 5.2 9.6 0.00 0.00 0.00 28 979.9
20260507184007 50 273 2.6 13.0 0.00 0.00 0.00 30 980.0
20260507183507 49 355 4.3 13.9 0.00 0.00 0.00 27 980.0
20260507183008 49 295 8.7 13.9 0.00 0.00 0.00 26 980.0
20260507182507 49 296 6.1 11.3 0.00 0.00 0.00 29 980.1
20260507182006 49 297 7.0 11.3 0.00 0.00 0.00 26 980.4
20260507181506 49 294 3.5 10.4 0.00 0.00 0.00 27 980.2
20260507181005 49 286 7.0 12.2 0.00 0.00 0.00 29 980.3
20260507180504 49 290 7.8 12.2 0.00 0.00 0.00 28 980.3
20260507180007 49 340 4.3 10.4 0.00 0.00 0.00 29 980.3
20260507175505 49 23 4.3 10.4 0.00 0.00 0.00 29 980.4
20260507175001 48 15 3.5 9.6 0.00 0.00 0.00 29 980.5
20260507174601 49 308 5.2 9.6 0.00 0.00 0.00 29 980.6
20260507174059 48 250 5.2 8.7 0.00 0.00 0.00 30 980.7
20260507173558 48 261 5.2 7.8 0.00 0.00 0.00 31 980.7
20260507173100 47 333 0.9 6.1 0.00 0.00 0.00 32 980.7
20260507172556 47 64 0.0 6.1 0.00 0.00 0.00 30 980.7
20260507172054 47 65 0.9 4.3 0.00 0.00 0.00 30 980.7
20260507171556 46 128 0.9 10.4 0.00 0.00 0.00 32 981.0
20260507171052 46 297 5.2 10.4 0.00 0.00 0.00 31 981.1
20260507170551 46 211 2.6 6.1 0.00 0.00 0.00 33 981.0
20260507170050 46 262 0.9 7.8 0.00 0.00 0.00 32 981.1
20260507165548 46 290 4.3 9.6 0.00 0.00 0.00 33 981.2
20260507165050 45 296 2.6 11.3 0.00 0.00 0.00 31 981.3
20260507164547 45 270 6.1 11.3 0.00 0.00 0.00 32 981.2
20260507164044 45 311 3.5 7.0 0.00 0.00 0.00 35 981.2
20260507163545 45 234 2.6 8.7 0.00 0.00 0.00 33 981.4
20260507163041 44 350 3.5 8.7 0.00 0.00 0.00 34 981.3
20260507162540 44 38 2.6 5.2 0.00 0.00 0.00 33 981.3
20260507162038 44 17 1.7 4.3 0.00 0.00 0.00 35 981.4
20260507161539 44 27 1.7 7.0 0.00 0.00 0.00 34 981.4
20260507161035 44 15 0.9 7.0 0.00 0.00 0.00 34 981.6
20260507160535 44 247 3.5 4.3 0.00 0.00 0.00 35 981.4
20260507160037 44 153 0.9 4.3 0.00 0.00 0.00 36 981.5
20260507155532 43 178 2.6 4.3 0.00 0.00 0.00 36 981.7
20260507155031 43 195 0.9 4.3 0.00 0.00 0.00 39 981.5
20260507154530 43 236 1.7 4.3 0.00 0.00 0.00 37 981.5
20260507154028 43 227 1.7 3.5 0.00 0.00 0.00 37 981.5
20260507153526 43 325 0.9 5.2 0.00 0.00 0.00 36 981.6
20260507153032 43 90 0.9 5.2 0.00 0.00 0.00 37 981.5
20260507152524 42 64 0.9 4.3 0.00 0.00 0.00 37 981.6
20260507152023 42 296 0.9 5.2 0.00 0.00 0.00 38 981.6
20260507151521 42 296 0.0 2.6 0.00 0.00 0.00 41 981.7
20260507151021 41 296 0.9 4.3 0.00 0.00 0.00 39 981.7
20260507150520 41 288 1.7 4.3 0.00 0.00 0.00 39 981.7
20260507150020 41 49 0.9 3.5 0.00 0.00 0.00 40 981.8
20260507145518 41 90 0.0 3.5 0.00 0.00 0.00 42 981.7
20260507145016 40 344 0.9 4.3 0.00 0.00 0.00 43 981.9
20260507144515 40 19 1.7 4.3 0.00 0.00 0.00 42 982.1
20260507144015 40 336 0.9 2.6 0.00 0.00 0.00 43 982.1
20260507143513 40 40 1.7 2.6 0.00 0.00 0.00 43 982.1
20260507143012 39 99 0.0 3.5 0.00 0.00 0.00 44 982.0
20260507142512 39 318 0.9 3.5 0.00 0.00 0.00 43 982.0
20260507142010 38 33 0.0 2.6 0.00 0.00 0.00 45 982.1
20260507141509 38 33 0.0 2.6 0.00 0.00 0.00 46 982.0
20260507141008 37 36 0.0 3.5 0.00 0.00 0.00 47 982.1
20260507140506 37 34 1.7 3.5 0.00 0.00 0.00 46 982.1
20260507140006 36 295 1.7 3.5 0.00 0.00 0.00 46 982.1
20260507135505 36 305 0.9 2.6 0.00 0.00 0.00 48 982.2
20260507135004 36 301 0.9 2.6 0.00 0.00 0.00 47 982.2
20260507134504 36 275 1.7 2.6 0.00 0.00 0.00 47 982.2
20260507134003 36 276 0.0 2.6 0.00 0.00 0.00 48 982.1
20260507133505 36 276 0.9 2.6 0.00 0.00 0.00 47 982.1
20260507133003 36 11 0.0 0.9 0.00 0.00 0.00 43 982.2
20260507132503 35 11 0.0 0.9 0.00 0.00 0.00 44 982.2
20260507132101 35 11 0.0 0.9 0.00 0.00 0.00 44 982.3
20260507131603 34 11 0.0 1.7 0.00 0.00 0.00 45 982.3
20260507131058 34 11 0.0 2.6 0.00 0.00 0.00 46 982.4
20260507130557 33 11 0.0 2.6 0.00 0.00 0.00 47 982.4
20260507130055 32 11 0.0 2.6 0.00 0.00 0.00 47 982.4
20260507125554 32 11 0.0 2.6 0.00 0.00 0.00 48 982.5
20260507125053 31 11 0.0 2.6 0.00 0.00 0.00 49 982.5
20260507124551 30 11 0.9 2.6 0.00 0.00 0.00 49 982.5
20260507124049 30 11 0.9 2.6 0.00 0.00 0.00 50 982.4
20260507123549 29 11 0.9 2.6 0.00 0.00 0.00 50 982.4
20260507123048 29 11 1.7 2.6 0.00 0.00 0.00 51 982.4
20260507122546 28 196 0.0 1.7 0.00 0.00 0.00 52 982.4
20260507122044 28 196 0.9 1.7 0.00 0.00 0.00 52 982.4
20260507121543 27 196 0.9 1.7 0.00 0.00 0.00 53 982.3
20260507121042 27 196 0.0 0.0 0.00 0.00 0.00 54 982.3
20260507120541 26 196 0.0 0.0 0.00 0.00 0.00 55 982.2
20260507120042 25 196 0.0 0.0 0.00 0.00 0.00 55 982.2
20260507115542 25 196 0.0 0.0 0.00 0.00 0.00 56 982.2
20260507115041 25 196 0.0 0.0 0.00 0.00 0.00 56 982.0
20260507114542 25 196 0.0 0.0 0.00 0.00 0.00 57 982.0
20260507114041 24 194 0.0 0.0 0.00 0.00 0.00 58 982.1
20260507113542 24 194 0.0 0.0 0.00 0.00 0.00 59 982.1
20260507113042 23 194 0.0 0.0 0.00 0.00 0.00 58 982.1
20260507112541 23 194 0.0 0.0 0.00 0.00 0.00 59 982.1
20260507112041 23 194 0.0 0.0 0.00 0.00 0.00 58 982.1
20260507111544 23 194 0.0 0.0 0.00 0.00 0.00 57 982.1
20260507111039 23 194 0.0 0.0 0.00 0.00 0.00 57 982.2
20260507110540 23 194 0.0 0.0 0.00 0.00 0.00 57 982.1
20260507110042 23 194 0.0 0.0 0.00 0.00 0.00 58 982.1
20260507105538 23 194 0.0 0.0 0.00 0.00 0.00 57 982.1
20260507105038 23 194 0.0 0.0 0.00 0.00 0.00 58 982.1
20260507104537 23 194 0.0 0.0 0.00 0.00 0.00 58 982.1
20260507104036 24 194 0.0 0.0 0.00 0.00 0.00 57 982.2
20260507103537 24 194 0.0 0.0 0.00 0.00 0.00 58 982.2
20260507103036 24 194 0.0 0.0 0.00 0.00 0.00 57 982.2
20260507102536 24 194 0.0 0.0 0.00 0.00 0.00 57 982.2
20260507102036 24 194 0.0 0.0 0.00 0.00 0.00 57 982.2
20260507101555 24 194 0.0 0.0 0.00 0.00 0.00 57 982.2
20260507101035 24 194 0.0 0.0 0.00 0.00 0.00 57 982.2
20260507100535 25 194 0.0 0.0 0.00 0.00 0.00 57 982.2
20260507100038 24 194 0.0 0.0 0.00 0.00 0.00 57 982.2
20260507095535 24 194 0.0 0.0 0.00 0.00 0.00 58 982.1
20260507095034 24 194 0.0 0.0 0.00 0.00 0.00 58 982.2
20260507094535 24 194 0.0 0.0 0.00 0.00 0.00 59 982.2
20260507094036 24 194 0.0 0.0 0.00 0.00 0.00 58 982.3
20260507093535 24 194 0.0 0.0 0.00 0.00 0.00 59 982.2
20260507093034 24 194 0.0 0.0 0.00 0.00 0.00 58 982.4
20260507092534 24 194 0.0 0.0 0.00 0.00 0.00 58 982.3
20260507092031 24 194 0.0 0.0 0.00 0.00 0.00 57 982.4
20260507091550 24 194 0.0 0.0 0.00 0.00 0.00 57 982.3
20260507091031 25 194 0.0 0.0 0.00 0.00 0.00 57 982.3
20260507090533 25 194 0.0 0.0 0.00 0.00 0.00 56 982.3
20260507090031 25 194 0.0 2.6 0.00 0.00 0.00 56 982.3
20260507085532 26 194 0.9 2.6 0.00 0.00 0.00 55 982.3
20260507085031 26 198 0.9 2.6 0.00 0.00 0.00 54 982.3
20260507084529 26 197 1.7 3.5 0.00 0.00 0.00 54 982.4
20260507084030 26 198 0.9 3.5 0.00 0.00 0.00 54 982.4
20260507083530 26 195 0.9 2.6 0.00 0.00 0.00 54 982.3
20260507083030 27 197 0.9 4.3 0.00 0.00 0.00 54 982.4
20260507082530 27 204 0.0 5.2 0.00 0.00 0.00 54 982.3
20260507082028 26 166 0.9 5.2 0.00 0.00 0.00 54 982.3
20260507081540 26 183 0.0 4.3 0.00 0.00 0.00 54 982.3
20260507081028 26 167 0.0 4.3 0.00 0.00 0.00 54 982.3
20260507080527 26 113 0.9 2.6 0.00 0.00 0.00 54 982.4
20260507080027 26 200 0.0 2.6 0.00 0.00 0.00 54 982.5
20260507075527 26 215 0.0 2.6 0.00 0.00 0.00 54 982.4
20260507075026 26 188 0.0 1.7 0.00 0.00 0.00 54 982.4
20260507074530 26 165 0.0 2.6 0.00 0.00 0.00 54 982.5
20260507074025 26 180 0.0 1.7 0.00 0.00 0.00 54 982.4
20260507073525 26 209 0.0 2.6 0.00 0.00 0.00 54 982.4
20260507073025 26 167 0.9 2.6 0.00 0.00 0.00 55 982.5
20260507072525 26 169 0.0 1.7 0.00 0.00 0.00 55 982.4
20260507072024 26 144 0.0 2.6 0.00 0.00 0.00 55 982.5
20260507071523 26 145 0.0 0.9 0.00 0.00 0.00 55 982.5
20260507071023 26 194 0.0 2.6 0.00 0.00 0.00 56 982.6
20260507070522 25 194 0.9 2.6 0.00 0.00 0.00 56 982.6
20260507070023 25 189 0.9 2.6 0.00 0.00 0.00 57 982.7
20260507065521 25 196 0.9 2.6 0.00 0.00 0.00 58 982.6
20260507065021 25 183 0.0 2.6 0.00 0.00 0.00 58 982.8
20260507064523 24 132 0.0 0.0 0.00 0.00 0.00 58 982.7
20260507064020 24 132 0.0 0.0 0.00 0.00 0.00 58 982.8
20260507063521 24 132 0.0 2.6 0.00 0.00 0.00 58 982.9
20260507063019 24 132 0.0 2.6 0.00 0.00 0.00 58 982.8
20260507062520 24 132 0.0 0.9 0.00 0.00 0.00 58 982.9
20260507062019 24 132 0.0 0.9 0.00 0.00 0.00 58 982.9
20260507061529 25 132 0.0 0.9 0.00 0.00 0.00 58 982.9
20260507061017 25 132 0.0 1.7 0.00 0.00 0.00 58 982.9
20260507060517 25 132 0.0 1.7 0.00 0.00 0.00 57 982.9
20260507060027 25 132 0.0 1.7 0.00 0.00 0.00 56 982.9
20260507055517 26 132 0.0 1.7 0.00 0.00 0.00 56 982.9
20260507055019 26 132 0.0 2.6 0.00 0.00 0.00 56 982.9
20260507054517 26 132 0.9 2.6 0.00 0.00 0.00 57 982.9
20260507054017 26 164 0.0 2.6 0.00 0.00 0.00 57 983.0
20260507053517 25 150 0.9 4.3 0.00 0.00 0.00 57 983.0
20260507053017 25 166 0.9 4.3 0.00 0.00 0.00 58 983.0
20260507052516 25 101 0.9 2.6 0.00 0.00 0.00 57 983.0
20260507052015 25 101 0.9 2.6 0.00 0.00 0.00 56 983.0
20260507051515 25 101 1.7 2.6 0.00 0.00 0.00 56 983.0
20260507051013 25 101 0.9 2.6 0.00 0.00 0.00 57 983.0
20260507050512 26 101 0.9 2.6 0.00 0.00 0.00 57 983.1
20260507050024 26 101 0.9 2.6 0.00 0.00 0.00 56 983.0
20260507045510 26 101 1.7 3.5 0.00 0.00 0.00 55 983.1
20260507045009 27 101 1.7 3.5 0.00 0.00 0.00 56 983.2
20260507044523 27 96 1.7 3.5 0.00 0.00 0.00 56 983.2
20260507044014 27 91 2.6 5.2 0.00 0.00 0.00 56 983.1
20260507043507 27 92 2.6 5.2 0.00 0.00 0.00 56 983.2
20260507043007 27 93 2.6 3.5 0.00 0.00 0.00 56 983.2
20260507042507 27 94 2.6 5.2 0.00 0.00 0.00 56 983.3
20260507042006 28 86 2.6 5.2 0.00 0.00 0.00 55 983.2
20260507041505 28 86 2.6 5.2 0.00 0.00 0.00 56 983.2
20260507041004 28 86 2.6 5.2 0.00 0.00 0.00 55 983.3
20260507040503 28 96 2.6 5.2 0.00 0.00 0.00 55 983.3
20260507040002 28 96 2.6 5.2 0.00 0.00 0.00 55 983.3
20260507035501 29 92 2.6 3.5 0.00 0.00 0.00 54 983.3
20260507035101 29 96 1.7 5.2 0.00 0.00 0.00 53 983.4
20260507034605 29 96 1.7 6.1 0.00 0.00 0.00 54 983.4
20260507034059 30 90 3.5 6.1 0.00 0.00 0.00 54 983.4
20260507033559 30 89 3.5 5.2 0.00 0.00 0.00 54 983.4
20260507033059 30 82 3.5 6.1 0.00 0.00 0.00 54 983.4
20260507032557 30 78 2.6 6.1 0.00 0.00 0.00 53 983.4
20260507032057 30 88 2.6 5.2 0.00 0.00 0.00 53 983.4
20260507031556 31 78 2.6 4.3 0.00 0.00 0.00 53 983.5
20260507031100 31 76 2.6 6.1 0.00 0.00 0.00 52 983.5
20260507030557 32 86 2.6 6.1 0.00 0.00 0.00 52 983.6
20260507030106 32 86 3.5 7.0 0.00 0.00 0.00 51 983.6
20260507025556 32 88 3.5 7.8 0.00 0.00 0.00 51 983.5
20260507025056 33 74 4.3 7.8 0.00 0.00 0.00 50 983.5
20260507024607 33 79 3.5 7.0 0.00 0.00 0.00 50 983.5
20260507024100 34 78 4.3 7.0 0.00 0.00 0.00 49 983.6
20260507023559 35 82 3.5 7.8 0.00 0.00 0.00 47 983.6
20260507023056 36 74 4.3 9.6 0.00 0.00 0.00 45 983.6
20260507022556 36 69 5.2 9.6 0.00 0.00 0.00 42 983.6
20260507022056 37 19 0.0 1.7 0.00 0.00 0.00 37 983.5
20260507021615 37 19 0.0 0.9 0.00 0.00 0.00 37 983.4
20260507021055 38 19 0.0 1.7 0.00 0.00 0.00 36 983.3
20260507020555 38 19 0.0 1.7 0.00 0.00 0.00 36 983.3
20260507020104 38 19 0.0 2.6 0.00 0.00 0.00 36 983.3
20260507015555 39 20 0.9 2.6 0.00 0.00 0.00 35 983.4
20260507015058 39 5 0.0 4.3 0.00 0.00 0.00 34 983.2
20260507014612 40 11 1.7 5.2 0.00 0.00 0.00 34 983.0
20260507014054 40 24 1.7 5.2 0.00 0.00 0.00 33 983.1
20260507013553 40 350 1.7 4.3 0.00 0.00 0.00 33 983.1
20260507013056 40 37 0.9 7.0 0.00 0.00 0.00 32 983.2
20260507012558 41 19 1.7 7.0 0.00 0.00 0.00 32 983.2
20260507012054 41 44 1.7 7.0 0.00 0.00 0.00 32 983.3
20260507011553 41 29 1.7 7.8 0.00 0.00 0.00 32 983.3
20260507011055 41 40 1.7 7.8 0.00 0.00 0.00 32 983.2
20260507010557 42 26 1.7 9.6 0.00 0.00 0.00 32 983.1
20260507010107 42 360 3.5 9.6 0.00 0.00 0.00 32 983.1
20260507005553 42 28 2.6 7.8 0.00 0.00 0.00 32 983.2
20260507005052 42 22 2.6 7.8 0.00 0.00 0.00 33 983.1
20260507004552 42 10 3.5 9.6 0.00 0.00 0.00 32 983.1
20260507004051 42 355 4.3 9.6 0.00 0.00 0.00 33 983.1
20260507003551 42 355 2.6 8.7 0.00 0.00 0.00 34 983.2
20260507003051 42 342 3.5 8.7 0.00 0.00 0.00 34 983.1
20260507002550 42 21 4.3 8.7 0.00 0.00 0.00 34 983.2
20260507002050 42 355 2.6 8.7 0.00 0.00 0.00 35 983.3
20260507001552 43 38 3.5 8.7 0.00 0.00 0.00 34 983.3
20260507001048 43 5 4.3 9.6 0.00 0.00 0.00 34 983.4
20260507000547 43 5 3.5 9.6 0.00 0.00 0.00 35 983.4
20260507000048 43 26 3.5 9.6 0.00 0.00 0.00 34 983.5
20260506235549 43 355 2.6 9.6 0.00 0.00 0.00 34 983.5
20260506235047 43 350 3.5 10.4 0.00 0.00 0.00 35 983.5
20260506234548 43 20 3.5 10.4 0.00 0.00 0.00 35 983.5
20260506234047 43 5 4.3 10.4 0.00 0.00 0.00 35 983.4
20260506233548 43 23 3.5 10.4 0.00 0.00 0.00 35 983.5
20260506233052 43 32 5.2 10.4 0.00 0.00 0.00 35 983.5
20260506232547 43 325 3.5 12.2 0.00 0.00 0.00 36 983.6
20260506232046 43 355 6.1 12.2 0.00 0.00 0.00 35 983.6
20260506231546 43 355 5.2 9.6 0.00 0.00 0.00 36 983.7
20260506231048 43 336 6.1 11.3 0.00 0.00 0.00 36 983.6
20260506230548 43 350 6.1 11.3 0.00 0.00 0.00 37 983.7
20260506230046 43 28 6.1 11.3 0.00 0.00 0.00 35 983.8
20260506225545 44 323 6.1 11.3 0.00 0.00 0.00 36 983.6
20260506225045 44 42 4.3 12.2 0.00 0.00 0.00 35 983.6
20260506224545 44 331 5.2 12.2 0.00 0.00 0.00 36 983.5
20260506224045 44 346 4.3 14.8 0.00 0.00 0.00 35 983.5
20260506223544 44 306 7.8 14.8 0.00 0.00 0.00 36 983.5
20260506223046 44 315 6.1 10.4 0.00 0.00 0.00 36 983.6
20260506222544 44 338 5.2 10.4 0.00 0.00 0.00 36 983.6
20260506222044 44 19 4.3 12.2 0.00 0.00 0.00 37 983.7
20260506221545 44 315 7.0 12.2 0.00 0.00 0.00 37 983.6
20260506221043 44 346 5.2 10.4 0.00 0.00 0.00 37 983.8
20260506220542 43 26 3.5 11.3 0.00 0.00 0.00 36 983.8
20260506220044 43 19 5.2 11.3 0.00 0.00 0.00 36 983.8
20260506215545 43 314 5.2 12.2 0.00 0.00 0.00 36 983.8
20260506215042 44 350 7.0 12.2 0.00 0.00 0.00 36 983.9